Change the Weather History Date:

Wednesday, June 12, 2013

  Actual Average Record
Temperature  
Mean Temperature 63 °F -  
Max Temperature 66 °F 71 °F 92 °F (1979)
Min Temperature 60 °F 54 °F 48 °F (1952)
Degree Days  
Heating Degree Days 2    
Growing Degree Days 13 (Base 50)    
Moisture  
Dew Point 57 °F    
Average Humidity 82    
Maximum Humidity 90    
Minimum Humidity 70    
Precipitation  
Precipitation 0.00 in - - ()
Sea Level Pressure  
Sea Level Pressure 29.98 in    
Wind  
Wind Speed 4 mph (SW)    
Max Wind Speed 10 mph    
Max Gust Speed 25 mph    
Visibility 8 miles    
Events      
Averages and records for this station are not official NWS values.
T = Trace of Precipitation, MM = Missing Value Source: NWS Daily Summary

Daily Weather History Graph

Daily Weather History Graph

Search for Another Location

Airport or City:

Trip Planner

Search our weather history database for the weather conditions in past years. The results will help you decide how hot, cold, wet, or windy it might be!

Date:

Astronomy

Jun. 12, 2013 Rise Set
Actual Time 5:44 AM PDT 8:09 PM PDT
Civil Twilight 5:15 AM PDT 8:38 PM PDT
Nautical Twilight 4:39 AM PDT 9:14 PM PDT
Astronomical Twilight 3:59 AM PDT 9:53 PM PDT
Moon 9:20 AM PDT (6/12) 10:56 PM PDT (6/12)
Length of Visible Light 15h 23m
Length of Day
14h 24m
Waxing Crescent, 15% of the Moon is Illuminated
Jun 12
Waxing Crescent
Jun 16
First Quarter
Jun 23
Full
Jun 29
Last Quarter
Jul 8
New

Hourly Weather History & Observations

Time (PDT) Temp. Dew Point Humidity Pressure Visibility Wind Dir Wind Speed Gust Speed Precip Events Conditions
12:51 AM 61.0 °F 57.0 °F 87% 29.94 in 10.0 mi WSW 5.8 mph - N/A   Overcast
1:51 AM 61.0 °F 57.0 °F 87% 29.94 in 10.0 mi Calm Calm - N/A   Overcast
2:51 AM 60.1 °F 57.0 °F 90% 29.93 in 9.0 mi Calm Calm - N/A   Overcast
3:51 AM 61.0 °F 57.0 °F 87% 29.93 in 9.0 mi Calm Calm - N/A   Overcast
4:51 AM 61.0 °F 57.0 °F 87% 29.93 in 9.0 mi ESE 3.5 mph - N/A   Overcast
5:51 AM 61.0 °F 57.0 °F 87% 29.94 in 8.0 mi NNE 3.5 mph - N/A   Overcast
6:51 AM 62.1 °F 57.9 °F 86% 29.94 in 7.0 mi ENE 3.5 mph - N/A   Overcast
7:51 AM 62.1 °F 57.9 °F 86% 29.96 in 5.0 mi Calm Calm - N/A   Overcast
8:51 AM 63.0 °F 59.0 °F 87% 29.98 in 5.0 mi SSE 4.6 mph - N/A   Overcast
9:51 AM 63.0 °F 59.0 °F 87% 30.01 in 4.0 mi South 8.1 mph - N/A   Overcast
10:05 AM 60.8 °F 57.2 °F 88% 30.01 in 2.5 mi South 8.1 mph 25.3 mph N/A   Overcast
10:22 AM 60.8 °F 57.2 °F 88% 30.02 in 3.0 mi South 6.9 mph - N/A   Overcast
10:51 AM 61.0 °F 57.9 °F 90% 30.03 in 4.0 mi SSW 5.8 mph - N/A   Overcast
11:51 AM 61.0 °F 55.9 °F 83% 30.04 in 10.0 mi SSW 6.9 mph - N/A   Overcast
12:36 PM 62.6 °F 55.4 °F 77% 30.03 in 10.0 mi SSW 5.8 mph - N/A   Overcast
12:51 PM 62.1 °F 55.9 °F 80% 30.03 in 10.0 mi WSW 5.8 mph - N/A   Overcast
1:51 PM 64.9 °F 55.9 °F 73% 30.01 in 10.0 mi SW 4.6 mph - N/A   Overcast
2:51 PM 66.0 °F 55.9 °F 70% 29.99 in 10.0 mi WSW 9.2 mph - N/A   Mostly Cloudy
3:51 PM 66.9 °F 57.0 °F 70% 29.98 in 10.0 mi WSW 10.4 mph - N/A   Overcast
4:51 PM 64.9 °F 55.9 °F 73% 29.97 in 10.0 mi WSW 9.2 mph - N/A   Overcast
5:51 PM 64.9 °F 55.9 °F 73% 29.96 in 10.0 mi WSW 6.9 mph - N/A   Mostly Cloudy
6:51 PM 64.0 °F 55.9 °F 75% 29.97 in 10.0 mi West 6.9 mph - N/A   Overcast
7:51 PM 63.0 °F 57.0 °F 81% 29.98 in 10.0 mi NW 3.5 mph - N/A   Overcast
8:51 PM 64.0 °F 57.0 °F 78% 29.98 in 10.0 mi Calm Calm - N/A   Overcast
9:51 PM 63.0 °F 57.9 °F 84% 29.99 in 10.0 mi WNW 5.8 mph - N/A   Overcast
10:51 PM 63.0 °F 57.9 °F 84% 29.98 in 10.0 mi West 3.5 mph - N/A   Overcast
11:51 PM 63.0 °F 57.9 °F 84% 29.98 in 10.0 mi West 3.5 mph - N/A   Overcast